Погода в Калаче

Погода в Калаче : погода сейчас, прогноз погоды и архив. Всё, что Вы хотите узнать о погоде в Калаче!

Поиск расширенной информации на нашем сайте:

Другие новости

Новости СМИ2

Главная страница сайта

Новости сайта

02.10.2013

Напоминаем, что на нашем новом сайте вы можете получить высокодетализированные прогнозы погоды по пунктам России, СНГ и мира (включающие важные для авиации метеовеличины, такие как направление и скорость ветра, видимость, явления погоды, количество и форма облачности, нижняя и верхняя граница облачности), а также ознакомиться с разнообразными материалами по авиационной метеорологии и подборкой полезных ссылок на эту тему.

Сайт Метеоцентр.Азия посвящён разработке технологий оптимизации авиаметеорологического обслуживания, включая проектирование и перспективное создание нескольких автоматизированных авиаметеорологических систем:
- система выпуска высокодетальных прогностических карт явлений погоды для нижнего воздушного пространства по России и ближнему зарубежью;
- система верификации прогнозов TAF (выпускаемых синоптиками официальных АМСГ РФ и ближнего зарубежья) и AUTOTAF (выпускаемых сайтом Метеоцентр.Азия) - выявление ошибок, онлайн-сопоставление с фактической погодой METAR, автоматическое внесение коррективов в прогнозы при резком отклонении фактической погоды от прогноза, подсчёт оправдываемости прогнозов по элементам и в целом;
- система обработки, анализа и отображения авиаметеорологической информации для применения провайдерами метеорологической информации.


Погода в Калаче - сегодня

Время (UTC), дата Ветер
(°,м/с) 
Видим.   Явления Облачность Т
(°С)
Тd
(°С)
f(%) Тe
(°С)
Pmin
(гПа)
dP
(гПа)
Po
(мм)
O2
(г/м3)
Тmin Tmax R s Состояние
почвы
21 17.01.17 тихо ()   4000 м  дымка  10/10 600 м 
[Sc]
-6.8 -7.7 93 -7  1033.8  0.6  766  317           
00 18.01.17 340 (С) 4000 м  дымка  10/10 600 м 
[Sc]
-5.9 -7 92 -8  1034.8  767  317           
03 18.01.17 320 (СЗ) 4000 м  дымка  10/10 600 м 
[Sc]
-5 -7.1 85 -5  1034.7  767  316  -7      15  неравномерный
сухой снег
100% 
06 18.01.17 300 (СЗ) 4000 м  дымка  10/10 600 м 
[Sc]
-5.1 -6.8 88 -6  1035.7  768  316           
09 18.01.17 350 (С) 4000 м  дымка  9/9 600 м 
[Sc]
-3.7 -5.9 85 -6  1036.4  0.7  768  315           
12 18.01.17 010 (С) 10 км    8/8 600 м 
[Sc]
-3.5 -6.7 78 -6  1036.2  -0.2  768  314           
15 18.01.17 020 (С) 10 км    10/10 2000 м 
[Ac As]
-4.2 -7.6 77 -6  1037.1  0.9  769  315    -3.5       
18 18.01.17 350 (С) 10 км    10/10 2000 м 
[Ac As]
-6.5 -8.1 88 -8  1037.9  0.7  769  318           
21 18.01.17 340 (С) 10 км    10/10 2000 м 
[Ac As]
-6.4 -8 88 -6  1037.7  -0.2  769  318           
00 19.01.17 040 (СВ) 10 км    10/10 600 м 
[Sc]
-6.7 -8.3 88 -6  1037.4  -0.3  769  319           
03 19.01.17 тихо ()   10 км    8/8 2000 м средняя 
[Ac trans]
-6.5 -8.5 86 -7  1037  -0.4  769  318  -6.8      15  неравномерный
сухой снег
100% 
06 19.01.17 тихо ()   10 км  дымка  10/10 600 м 
[Sc]
-8.5 -9.6 92 -9  1037  -0.1  769  321  -8.7         
09 19.01.17 250 (З) 4000 м  дымка{снег}  10/10 600 м 
[Sc]
-5.3 -7.8 83 -7  1036.9  769  317           
12 19.01.17 270 (З) 20000 м  {снег}  3/3 2000 м средняя 
[Ac lent]
-4.4 -10 65 -7  1035.2  -1.6  767  315           
15 19.01.17 240 (ЮЗ) 10 км    ясно 
-8 -10.7 81 -11  1034.2  -1.2  767  319    -4  0.2     
18 19.01.17 240 (ЮЗ) 10 км    ясно 
-11.4 -14.2 80 -16  1032.8  -1.5  765  323           
21 19.01.17 230 (ЮЗ) 10 км    ясно 
-12.8 -14.8 85 -15  1031.7  -1  765  325           
00 20.01.17 210 (ЮЗ) 10 км    ясно 
-13.2 -15.2 85 -17  1029.5  -2.3  763  324           
03 20.01.17 250 (З) 10 км    5/0 средняя 
[As trans]
-11.2 -13.2 85 -15  1026.4  -2.9  761  321  -13.5      16  неравномерный
сухой снег
100% 
06 20.01.17 240 (ЮЗ) 10 км    10/10 2000 м 
[Ns]
-10.2 -12.2 85 -13  1025  -1.4  760  319           
09 20.01.17 250 (З) 7-12{12}  4000 м  слаб. снег  10/10 2000 м 
[Ns]
-8.3 -10.6 83 -14  1022.8  -2  758  316           
12 20.01.17 260 (З) 6{12}  10 км  {снег}  10/10 2000 м 
[Ns]
-7.2 -9.7 82 -12  1020.5  -2.2  756  314           
15 20.01.17 260 (З) 10 км    10/10 2000 м 
[Ac As]
-6.3 -8.6 84 -10  1020.1  -0.4  756  313    -6.3  0.2     
18 20.01.17 250 (З) 10 км    10/10 2000 м 
[Ac As]
-5.3 -7.1 87 -5  1020.1  0.1  756  312           
21 20.01.17 250 (З) 10 км    10/10 600 м 
[Sc]
-4.4 -6 89 -6  1020.2  0.1  756  310           
Время (UTC), дата Ветер
(°,м/с) 
Видим.   Явления Облачность Т
(°С)
Тd
(°С)
f(%) Тe
(°С)
Pmin
(гПа)
dP
(гПа)
Po
(мм)
O2
(г/м3)
Тmin Tmax R s Состояние
почвы

Для получения пояснительной информации подведите курсор к названию столбца.

ПОГОДА в Калаче - архив

Всё, что Вы хотите узнать о погоде в Калаче - удобно и подробно!

Выберите нужную дату (начиная с 1 января 2015* года) и нажмите кнопку "Найти".
Будут отображены архивные сводки погоды по пункту Калач, начиная с указанной даты.


Отображать данные в формате CSV (для использования в таблицах Excel)


Внимание! Наш архив погоды предназначен исключительно для личного некоммерческого использования в познавательных целях. Если Вам необходимы официальные справки о состоянии погоды (для производственных, юридических, коммерческих и т.п. целей), обращайтесь в органы Росгидромета.

*Примечание: данная дата относится к архиву по метеостанциям СССР (Россия, СНГ, Балтия).
Архив по метеостанциям Зарубежной Европы и Азии (кроме Китая) хранится 10 дней, по другим регионам земного шара (Китай, Африка, Америка, Австралия, Океания) - 1 день.

Калач - район местоположения метеостанции


Название, широта, долгота, высота метеостанции:
Калач 50.4°ш. 41.1°д. 92 м над ур. моря [Российская Федерация]

Дополнительная информация

В oтличие oт бoльшинства пoгoдных сайтoв мы публикуем пoдрoбную метеoинфoрмацию в детальнoм прoфессиoнальнoм фoрмате.

Характеристики температуры и влажнoсти вoздуха измеряются на высoте 2 м в тени вдали oт зданий и деревьев.
Скoрoсть ветра измеряется на высoте 10 м (на урoвне рoста челoвека скoрoсть ветра ниже в 1.5-2 раза). Если метеoстанция нахoдится в гoрoде или в лесу, тo скoрoсть ветра занижена на 2-4 м/с пo сравнению с oткрытым местoм. Скoрoсть ветра над акватoриями крупных рек и oзёр, а также на вершинах хoлмoв на 2-5 м/с выше, чем в oбычных услoвиях.
Атмoсфернoе давление в разных тoчках местнoсти мoжет значительнo oтличаться oт давления на метеoстанции, в зависимoсти oт услoвий рельефа (при пoдъёме на 10 м давление пoнижается примернo на 1 мм рт.ст.).